THOR AGENA B DEB, 2153

Orbit data source: Space-Track

THOR AGENA B DEB, 2153 is space debris in LEO originally from a launch on Mon, 29 Nov 1965 UTC launched from the Air Force Western Test Range (AFWTR). Debris objects in space refer to the collection of defunct objects orbiting the Earth. Examples of debris include non-operational satellites, rocket bodies, and fragments generated from explosions, collisions, or faulty payload assembly.

Loading next visibility...
Identifier
2153, 1965-098J
Orbit
LEO
Last TLE update
10 hours ago
Origin
Manufacturer
Unknown
Mission
Spacecraft
Bus & Motor
Unknown
Mass
~1 kg wet, ~1 kg dry
Launch date (UTC)
1965-11-29 (60 years ago)
Launch vehicle
Unknown
Launch site
Air Force Western Test Range (AFWTR)
Object type
Payload
Rocket body
Debris
Shape & HBR
Ann Cyl, 0.2 m
Radar Cross Section
0.031 m², Small (<0.1 m²)

Expand to show TLE details & history

TLE from 10 hours ago
0 THOR AGENA B DEB
1 02153U 65098J   25191.60281446  .00000576  00000-0  17854-3 0  9994
2 02153  79.7430  10.5742 1283461  31.0840  31.3969 12.38532493644738
Epoch: 2025-07-10T14:28Z
TLE epoch observation values (Epoch: 2025-07-10T14:28:03.169Z)
Latitude
68.85902°
Longitude
-107.47007°
Altitude
701.88 km
Speed
7.894 km/s
True Right ascension
02h 33m 14s
True Declination
68° 44' 32"
Sunlit
Object was in daylight at epoch
Visualization orbit readout
Latitude
49.11382°
Longitude
-123.55851°
Altitude
554.128 km
Speed
8.041 km/s
Apparent Right ascension
00h 53m 19s
Apparent Declination
7° 00' 05"
Sunlit
Object is in daylight
Visualization observer readout
Local Sidereal Time
12:20:20
Azimuth
348.875° N
Elevation
-42.468°
Doppler factor
1
Orbital elements
Apogee altitude
2,522.69 km
Perigee altitude
497.803 km
Semi-major axis
7,888.384 km
Eccentricity
0.12835
Inclination
79.743°
RAAN
10.5742°
Arg. of periapsis
31.084°
True anomaly
Unknown
Mean anomaly
31.3969°
Eccentric anomaly
Unknown
Mean motion
3.09786 °/min
Orbital period
116.21 mins
BSTAR
0.00017854
Loading maneuver chart data...
Loading SW <> Apogee altitude chart data...
Loading historical data...
Loading historical data...
Loading historical data...
Loading historical data...
Loading historical data...
Loading historical data...
Loading historical data...

THOR AGENA B DEB Visibility forecast

Observer location: undefined°, undefined°

Span
Click to sort rows by Start time (UTC) header in descending order
Start Az.
Max El. time (UTC)
Max El. Az.
Max El.
End time (UTC)
End Az.
19 mins2025-07-11 00:23:10.421Z336.406° NNW2025-07-11 00:30:10.421Z266.241° W40.038°2025-07-11 00:42:10.421Z190.331° SSW
4 mins2025-07-11 13:35:10.421Z253.089° W2025-07-11 13:36:10.421Z278.78° WNW24.03°2025-07-11 13:39:10.421Z342.963° N
12 mins2025-07-11 21:43:10.421Z30.621° NE2025-07-11 21:48:10.421Z71.265° E20.596°2025-07-11 21:55:10.421Z111.684° ESE
19 mins2025-07-11 23:39:10.421Z347.857° N2025-07-11 23:46:10.421Z197.893° SSW44.849°2025-07-11 23:58:10.421Z173.566° S
|